Weather in Losevo

Russia / Saint-Petersburg and Leningrad Oblast     61°04′58″N   28°57′33″E
temp.,
°C
wind,
m/s
gust,
m/s
humid.,
%
clouds,
%
prec.,
mm/h
press.,
hPa
HPBL,
m
27 october, wed
wed2700:00+8sw41095100 0.1 1005631
03:00+7sw3897100 3.0 1002537
06:00+7wsw41088100 1.1 1002521
09:00+7wsw41088100 1.1 1003477
12:00+8w488499 0.1 1004810
15:00+7w3781100 0.1 1005850
18:00+7sw2586100 0.0 1005247
21:00+6s2596100 0.0 1004161
28 october, thu
thu2800:00+6sse2698100 2.7 1003363
03:00+6ene2595100 3.8 1003265
06:00+6nne2595100 0.1 1007254
09:00+6nne2493100 0.3 1011230
12:00+7e238999 0.1 1015343
15:00+6ese2387100 0.1 1018384
18:00+5se2796100 0.0 1019230
21:00+5sse3994100 0.1 1019400
29 october, fri
fri2900:00+6sse41293100 0.7 1017597
03:00+7s61490100 1.6 1015916
06:00+9sw61496100 0.0 1013862
09:00+10sw5138876 0.0 1013777
12:00+11wsw414843 0.0 1013804
15:00+12sw514804 0.0 1014705
18:00+10sw515855 0.0 1015609
21:00+9sw51590100 0.0 1015608
30 october, sat
sat3000:00+9sw51689100 0.0 1015652
03:00+9sw5159242 0.0 1015687
06:00+9sw5149390 0.0 1015625
09:00+9sw51189100 0.0 1015591
12:00+10sw41088100 0.0 1016597
15:00+9ssw41088100 0.0 1015595
18:00+8ssw4139132 0.0 1014537
21:00+9ssw5148784 0.0 1013624
31 october, sun
sun3100:00+8ssw5148912 0.0 1012646
03:00+8ssw5148947 0.0 1012682
06:00+8sw51489100 0.0 1011748
09:00+9sw61285100 0.0 1012863
12:00+10sw5118279 0.0 1012805
15:00+9sw41083100 0.0 1013813
18:00+8ssw399098 0.0 1013322
21:00+7s2898100 0.0 1012212